This demonstration page uses our WeatherBlox Daily Observations layout. Learn more.

Left ArrowRight Arrow

38.83388, -104.82136

Hourly Observations for April 20, 2022

Temp ( °F °C ) Dew Point ( °F °C ) Humidity (%) Winds ( mph kmh ) Pressure ( in mb ) Visibility ( mi km ) Precip ( " mm )
12:58 am 00:58 Clear 60 15.7 17 -8.6 18 18 Calm 29.31 992 10 16 0.00 0.00
1:58 am 01:58 Mostly Clear 58 14.4 18 -7.7 21 21 W 5 7 29.31 993 10 16 0.00 0.00
2:58 am 02:58 undefined 57 14.1 19 -7.3 22 22 N 7 11 29.32 993 10 16 0.00 0.00
3:53 am 03:53 undefined 52 11 21 -6 30 30 W 16 26 29.41 996 10 16 0.00 0.00
3:58 am 03:58 undefined 51 10.3 21 -6.1 31 31 W 14 22 29.41 996 10 16 0.00 0.00
4:58 am 04:58 Clear 48 8.9 21 -6.1 34 34 WSW 15 24 29.39 995 10 16 0.00 0.00
5:58 am 05:58 Clear 49 9.4 22 -5.7 34 34 WSW 13 20 29.41 996 10 16 0.00 0.00
6:58 am 06:58 Sunny 50 9.9 22 -5.6 33 33 WSW 6 9 29.45 997 10 16 0.00 0.00
7:58 am 07:58 Sunny 53 11.7 23 -4.9 31 31 ENE 6 9 29.51 999 10 16 0.00 0.00
8:58 am 08:58 Sunny 57 13.7 23 -5 27 27 E 13 20 29.55 1001 10 16 0.00 0.00
9:58 am 09:58 Sunny 59 14.8 22 -5.6 24 24 E 15 24 29.56 1001 10 16 0.00 0.00
10:19 am 10:19 Sunny 59 15 23 -5 25 25 ESE 15 24 29.57 1001 10 16 0.00 0.00
10:23 am 10:23 Sunny 59 15 23 -5 25 25 E 15 24 29.57 1001 10 16 0.00 0.00
10:58 am 10:58 Sunny 60 15.6 23 -4.9 24 24 E 16 26 29.57 1001 10 16 0.00 0.00
11:58 am 11:58 Sunny 61 16 23 -5.1 23 23 E 23 37 29.57 1001 10 16 0.00 0.00
12:19 pm 12:19 Sunny 63 17 23 -5 22 22 ESE 17 28 29.57 1001 10 16 0.00 0.00
12:58 pm 12:58 Mostly Sunny 63 17.4 23 -5.2 21 21 E 23 37 29.58 1002 10 16 0.00 0.00
1:09 pm 13:09 Mostly Sunny 64 18 23 -5 21 21 E 16 26 29.56 1001 10 16 0.00 0.00
1:39 pm 13:39 Sunny 64 18 23 -5 21 21 E 17 28 29.56 1001 10 16 0.00 0.00
1:58 pm 13:58 Sunny 65 18.3 23 -5.1 20 20 ENE 20 31 29.59 1002 10 16 0.00 0.00
2:58 pm 14:58 Sunny 65 18.6 23 -4.8 20 20 E 18 30 29.58 1002 10 16 0.00 0.00
3:29 pm 15:29 Sunny 66 19 23 -5 19 19 E 16 26 29.66 1004 10 16 0.00 0.00
3:42 pm 15:42 Sunny 66 19 23 -5 19 19 ENE 17 28 29.61 1003 10 16 0.00 0.00
3:58 pm 15:58 Sunny 66 18.7 24 -4.7 20 20 E 16 26 29.62 1003 10 16 0.00 0.00
4:58 pm 16:58 Mostly Cloudy 66 18.8 22 -5.3 19 19 E 16 26 29.66 1004 10 16 0.00 0.00
5:17 pm 17:17 Cloudy 64 18 23 -5 21 21 ESE 16 26 29.66 1005 10 16 0.00 0.00
5:58 pm 17:58 Cloudy 64 18 22 -5.3 20 20 E 13 20 29.64 1004 10 16 0.00 0.00
6:58 pm 18:58 Mostly Cloudy 62 16.9 25 -3.8 24 24 E 10 17 29.66 1005 10 16 0.00 0.00
7:58 pm 19:58 Clear 60 15.4 26 -3.5 27 27 SE 8 13 29.66 1005 10 16 0.00 0.00
8:58 pm 20:58 Clear 58 14.3 26 -3.1 30 30 SE 7 11 29.67 1005 10 16 0.00 0.00
9:58 pm 21:58 Clear 55 13 27 -2.9 33 33 ESE 3 6 29.68 1005 10 16 0.00 0.00
10:58 pm 22:58 Clear 54 12.4 27 -3 34 34 ESE 12 19 29.71 1006 10 16 0.00 0.00
11:58 pm 23:58 Clear 53 11.4 27 -2.8 37 37 E 13 20 29.74 1007 10 16 0.00 0.00

Powered by AerisWeather